{"data":{"norad_id":55816,"intl_designator":"2023-029W","name":"ONEWEB-0654","alt_names":[],"object_type":"PAYLOAD","status":"ACTIVE","operator":null,"country":"UK","launch_date":"2023-03-09","launch_site_code":"AFETR","launch_vehicle":null,"mission":null,"orbit_class":"UNKNOWN","rcs_meters":null,"size_class":null,"mass_kg":null,"dimensions":null,"purposes":["comms"],"wikipedia_slug":null,"has_3d_model":false,"image_url":null,"decayed_at":null,"tle_current":{"epoch":"2026-09-19T18:19:29.560512Z","epoch_age_seconds":81876,"freshness":"FRESH","line1":"1 55816U 23029W   26262.76353658 -.00000032  00000+0 -12186-3 0  9999","line2":"2 55816  87.8894 270.8414 0002193  96.7366 263.4014 13.14503912171849","mean_motion":13.14503912,"eccentricity":0.0002193,"inclination_deg":87.8894,"raan_deg":270.8414,"arg_perigee_deg":96.7366,"mean_anomaly_deg":263.4014,"bstar":-0.00012186,"rev_number":17184,"period_min":109.54703039332,"perigee_km":1204.1229232478,"apogee_km":1207.4492319096,"semimajor_km":7583.9230775787,"source":"CELESTRAK","updated_at":"2026-09-20T09:00:44.763107Z"}}}